Regional Weather Roundup
Issued by NWS

Home | Current Version | Previous Version | Text Only | Print | Product List | Glossary Off
Versions: 1 2 3 4 5 6 7 8 9 10 11 12 13 14 15 16 17 18 19 20 21 22 23 24 25 26 27 28 29 30 31 32 33 34 35 36 37 38 39 40 41 42 43 44 45 46 47 48 49 50

000
ASUS43 KLSX 201057
RWRMO

WEATHER SUMMARY FOR MISSOURI
NATIONAL WEATHER SERVICE SPRINGFIELD MO
500 AM CST MON FEB 20 2017

NOTE: "FAIR" INDICATES FEW OR NO CLOUDS BELOW 12,000 FEET WITH NO
       SIGNIFICANT WEATHER AND/OR OBSTRUCTIONS TO VISIBILITY.
       CURRENT SKY AND/OR WEATHER CONDITIONS ARE NOT AVAILABLE FOR
       CHILLICOTHE AND FARMINGTON.

MOZ001>031-035>038-043-044-053-054-201200-
...NORTHERN AND WESTERN MISSOURI...

CITY           SKY/WX    TMP DP  RH WIND       PRES   REMARKS
KANSAS CTY INT CLOUDY    60  57  89 S12       29.85R
LEE`S SUMMIT   MOCLDY    62  55  77 SE15G22   29.84F
ST JOSEPH      MOCLDY    62  56  80 S10       29.83F
CHILLICOTHE      N/A     60  55  83 SE7       29.89F

$$
MOZ066>068-077>081-088>096-101>105-201200-
...SOUTHWEST MISSOURI...

CITY           SKY/WX    TMP DP  RH WIND       PRES   REMARKS
SPRINGFIELD    PTCLDY    61  55  81 SE20      29.90F
JOPLIN         CLOUDY    63  53  70 SE10      29.84S

$$
MOZ032>034-039>042-045>050-055>058-069>072-201200-
...CENTRAL MISSOURI...

CITY           SKY/WX    TMP DP  RH WIND       PRES   REMARKS
COLUMBIA       NOT AVBL
JEFFERSON CITY MOCLDY    59  54  83 E10       29.95S
ROLLA          CLOUDY    58  53  84 S8        29.98S
SEDALIA        PTCLDY    63  55  75 SE14      29.90F
WARRENSBURG    CLOUDY    61  54  77 SE14      29.87S

$$
MOZ051-052-059>065-201200-
...EAST CENTRAL MISSOURI...

CITY           SKY/WX    TMP DP  RH WIND       PRES   REMARKS
ST LOUIS INTL  CLOUDY    53  50  89 SE8       30.04S
SPIRIT OF STL  FOG       48  48 100 E5        30.02F VSB 3/4

$$
MOZ072>076-082>087-097>100-106>115-201200-
...SOUTH CENTRAL AND SOUTHEAST MISSOURI...

CITY           SKY/WX    TMP DP  RH WIND       PRES   REMARKS
CAPE GIRARDEAU CLOUDY    49  46  90 CALM      30.07S
POPLAR BLUFF   CLOUDY    52  51  97 NE5       30.04F FOG
WEST PLAINS    PTCLDY    56  52  86 SE7       30.02F

$$


USA.gov is the U.S. government's official web portal to all federal, state and local government web resources and services.